McCook, NE

3:18 AM CST on February 22, 2017 (GMT -0600)
McCook Municipal

Weather History for KMCK - July, 2013

Change the Weather History Date:

Sunday, July 14, 2013

  Actual Average Record
Temperature  
Mean Temperature 81 °F 76 °F  
Max Temperature 92 °F 90 °F 109 °F (1934)
Min Temperature 70 °F 62 °F 48 °F (1990)
Cooling Degree Days 16    
Growing Degree Days 32 (Base 50)    
Moisture  
Dew Point 65 °F    
Average Humidity 63    
Maximum Humidity 88    
Minimum Humidity 35    
Precipitation  
Precipitation 0.58 in 0.11 in 1.12 in (1952)
Month to date precipitation 1.31 1.50  
Year to date precipitation 7.30 12.82  
Sea Level Pressure  
Sea Level Pressure 29.96 in    
Wind  
Wind Speed 8 mph (ESE)    
Max Wind Speed 26 mph    
Max Gust Speed 32 mph    
Visibility 9 miles    
Events Fog , Rain , Thunderstorm    
T = Trace of Precipitation, MM = Missing Value Source: NWS Daily Summary

Daily Weather History Graph

Daily Weather History Graph

Search for Another Location

Airport or City:

Trip Planner

Search our weather history database for the weather conditions in past years. The results will help you decide how hot, cold, wet, or windy it might be!

Date:

Astronomy

Jul. 14, 2013 Rise Set
Actual Time 6:24 AM CDT 9:11 PM CDT
Civil Twilight 5:52 AM CDT 9:43 PM CDT
Nautical Twilight 5:12 AM CDT 10:23 PM CDT
Astronomical Twilight 4:26 AM CDT 11:08 PM CDT
Moon 12:44 PM CDT (7/14) No Moon Set
Length of Visible Light 15h 50m
Length of Day
14h 46m
Waxing Crescent, 35% of the Moon is Illuminated
Jul 14
Waxing Crescent
Jul 15
First Quarter
Jul 22
Full
Jul 29
Last Quarter
Aug 6
New

Hourly Weather History & Observations

Time (CDT) Temp. Heat Index Dew Point Humidity Pressure Visibility Wind Dir Wind Speed Gust Speed Precip Events Conditions
12:53 AM 87.1 °F 85.7 °F 55.9 °F 35% 29.80 in 10.0 mi East 3.5 mph - N/A   Clear
1:53 AM 80.1 °F 81.2 °F 62.1 °F 54% 29.86 in 10.0 mi WNW 9.2 mph - N/A   Clear
2:53 AM 77.0 °F - 62.1 °F 60% 29.85 in 10.0 mi NW 13.8 mph - N/A   Clear
3:53 AM 75.9 °F - 62.1 °F 62% 29.83 in 10.0 mi North 5.8 mph - N/A   Clear
4:53 AM 73.9 °F - 63.0 °F 68% 29.83 in 10.0 mi WNW 4.6 mph - N/A   Clear
5:53 AM 73.0 °F - 63.0 °F 71% 29.87 in 10.0 mi East 6.9 mph - N/A   Clear
6:53 AM 73.0 °F - 63.0 °F 71% 29.88 in 10.0 mi Calm Calm - N/A   Clear
7:53 AM 73.9 °F - 64.0 °F 71% 29.90 in 10.0 mi Calm Calm - N/A   Clear
8:53 AM 77.0 °F - 64.9 °F 66% 29.91 in 10.0 mi SSW 5.8 mph - N/A   Overcast
9:53 AM 81.0 °F 83.0 °F 66.0 °F 60% 29.93 in 10.0 mi WSW 6.9 mph - N/A   Clear
10:53 AM 84.0 °F 85.8 °F 64.9 °F 53% 29.92 in 10.0 mi Variable 6.9 mph - N/A   Clear
11:53 AM 84.9 °F 86.6 °F 64.9 °F 51% 29.91 in 10.0 mi Variable 3.5 mph - N/A   Scattered Clouds
12:53 PM 91.0 °F 93.0 °F 64.9 °F 42% 29.91 in 10.0 mi Calm Calm - N/A   Partly Cloudy
1:53 PM 89.1 °F 91.0 °F 64.9 °F 45% 29.91 in 10.0 mi ENE 5.8 mph - N/A   Mostly Cloudy
2:20 PM 87.8 °F 89.4 °F 64.4 °F 46% 30.00 in 10.0 mi SE 5.8 mph - N/A Thunderstorm Thunderstorm
2:35 PM 82.4 °F 84.6 °F 66.2 °F 58% 30.00 in 10.0 mi ESE 16.1 mph 21.9 mph N/A   Scattered Clouds
2:46 PM 84.2 °F 87.3 °F 68.0 °F 58% 30.00 in 9.0 mi ESE 16.1 mph - N/A Thunderstorm Clear
2:53 PM 86.0 °F 89.4 °F 68.0 °F 55% 29.92 in 9.0 mi ESE 15.0 mph - N/A Thunderstorm Partly Cloudy
3:39 PM 86.0 °F 88.2 °F 66.2 °F 51% 30.01 in 9.0 mi SE 13.8 mph 23.0 mph N/A   Mostly Cloudy
3:46 PM 86.0 °F 88.2 °F 66.2 °F 51% 30.01 in 9.0 mi East 12.7 mph - N/A Thunderstorm Overcast
3:53 PM 82.0 °F 84.5 °F 66.9 °F 60% 29.93 in 6.0 mi East 24.2 mph 28.8 mph N/A Thunderstorm Haze
3:56 PM 78.8 °F - 68.0 °F 69% 30.01 in 1.8 mi ENE 26.5 mph 32.2 mph 0.05 in Rain Heavy Rain
4:07 PM 73.4 °F - 69.8 °F 88% 30.02 in 0.5 mi ESE 23.0 mph 31.1 mph 0.30 in Fog , Rain , Thunderstorm Heavy Thunderstorms and Rain
4:24 PM 75.2 °F - 69.8 °F 83% 30.03 in 2.5 mi South 9.2 mph - 0.58 in Rain , Thunderstorm Light Thunderstorms and Rain
4:26 PM 75.2 °F - 69.8 °F 83% 30.03 in 5.0 mi South 9.2 mph - 0.58 in Rain , Thunderstorm Light Thunderstorms and Rain
4:53 PM 75.9 °F - 71.1 °F 85% 29.97 in 6.0 mi Calm Calm - 0.58 in   Haze
5:53 PM 78.1 °F - 70.0 °F 76% 29.97 in 9.0 mi Variable 4.6 mph - N/A   Scattered Clouds
6:53 PM 77.0 °F - 64.0 °F 64% 30.00 in 10.0 mi SE 15.0 mph - N/A   Mostly Cloudy
7:53 PM 75.0 °F - 63.0 °F 66% 30.04 in 10.0 mi SSE 10.4 mph 20.7 mph N/A   Overcast
8:53 PM 73.0 °F - 63.0 °F 71% 30.06 in 10.0 mi SSE 6.9 mph - N/A   Overcast
9:53 PM 73.0 °F - 64.0 °F 73% 30.05 in 10.0 mi North - - 0.00 in   Overcast
10:53 PM 72.0 °F - 63.0 °F 73% 30.08 in 10.0 mi North - - 0.00 in   Overcast
11:53 PM 72.0 °F - 64.0 °F 76% 30.09 in 10.0 mi Calm Calm - N/A   Overcast